Terminal Aerodrome Forecast
Issued by NWS

Home | Current Version | Previous Version | Text Only | Print | Product List | Glossary On
Versions: 1 2 3 4 5 6 7 8 9 10 11 12 13 14 15 16 17 18 19 20 21 22 23 24 25 26 27 28 29 30 31 32
000
FTUS41 KGYX 240528
TAFMHT
TAF
KMHT 240528Z 2406/2506 00000KT P6SM SCT100 BKN250
     FM241200 19008KT P6SM BKN050 OVC100
     FM241700 19009KT 5SM -RASN BKN025 OVC050
     FM242000 20008KT P6SM -SHRA BKN015 OVC025=

USA.gov is the U.S. government's official web portal to all federal, state and local government web resources and services.